{"data":{"norad_id":66006,"epoch":"2026-05-25T04:34:39.071136Z","epoch_age_seconds":51771,"freshness":"FRESH","line1":"1 66006U 25232B   26145.19072999  .00008838  00000+0  31007-3 0  9996","line2":"2 66006  53.1562 108.1821 0000974  76.2650 283.8459 15.30208613 35140","mean_motion":15.30208613,"eccentricity":9.74e-5,"inclination_deg":53.1562,"raan_deg":108.1821,"arg_perigee_deg":76.265,"mean_anomaly_deg":283.8459,"bstar":0.00031007,"rev_number":3514,"period_min":94.104816020925,"perigee_km":474.5218386877,"apogee_km":475.8568666612,"semimajor_km":6853.3263526745,"source":"CELESTRAK","updated_at":"2026-05-25T13:38:21.012498Z"}}